Date String (YYYY-MM-DD hh:mm:ss) UTC,Instrument flags,absolute air pressure of the measurement (hPa),sample flow rate (lpm),inlet stack bypass flow (lpm),air temperature of the measurement (°C),ambient temperature measured by the external sensor (°C),aerosol sample conditioner tube jacket temperature (°C),OPC LED temperature (°C),internal box temperature (°C),relative humidity of the measurement (%),span deviation,mass concentration of particles derived from Lorenz-Mie calculation of OPC scattering (μg/m³),mass concentration of particles derived from Lorenz-Mie calculation of OPC scattering (μg/m³),mass concentration of particles derived from Lorenz-Mie calculation of OPC scattering (μg/m³)
DateTimeUTC,F1_M11,P_M11,Q1_M11,Q2_M11,T1_M11,T2_M11,T3_M11,T4_M11,T5_M11,U1_M11,ZSPAN_M11,X2_M11,X0_M11,X1_M11
2023-12-19 16:00:00,SystemResetWarning,0826.0,5.00,000.00,023.7,023.0,000.0,031.9,025.1,6.2,0000.0,0001.09,0002.08,0000.91
2023-12-19 16:01:00,SystemResetWarning,0825.9,5.01,000.00,023.7,023.0,000.0,031.9,025.1,6.2,0000.0,0001.09,0002.16,0000.91
2023-12-19 16:02:00,SystemResetWarning,0825.9,5.01,000.00,023.7,023.0,000.0,031.9,025.1,6.3,0000.0,0001.11,0002.83,0000.92
2023-12-19 16:03:00,SystemResetWarning,0825.9,5.00,000.00,023.7,023.0,000.0,031.9,025.1,6.6,0000.0,0001.12,0002.76,0000.92
2023-12-19 16:04:00,SystemResetWarning,0825.9,5.00,000.00,023.7,023.0,000.0,031.9,025.1,6.6,0000.0,0001.13,0002.87,0000.92
2023-12-19 16:05:00,SystemResetWarning,0825.9,5.00,000.00,023.7,023.1,000.0,031.9,025.1,6.6,0000.0,0001.12,0002.84,0000.91
2023-12-19 16:06:00,SystemResetWarning,0825.9,4.99,000.00,023.8,023.1,000.0,032.0,025.1,6.9,0000.0,0001.12,0002.80,0000.91
2023-12-19 16:07:00,SystemResetWarning,0825.9,4.99,000.00,023.8,023.1,000.0,032.0,025.1,6.6,0000.0,0001.11,0002.69,0000.92
2023-12-19 16:08:00,SystemResetWarning,0825.9,5.01,000.00,023.8,023.1,000.0,032.0,025.1,6.8,0000.0,0001.10,0002.69,0000.93
2023-12-19 16:09:00,SystemResetWarning,0826.0,5.02,000.00,023.8,023.1,000.0,032.0,025.2,6.7,0000.0,0001.11,0002.63,0000.94
2023-12-19 16:10:00,SystemResetWarning,0826.0,5.00,000.00,023.8,023.1,000.0,032.0,025.2,6.9,0000.0,0001.13,0002.62,0000.95
2023-12-19 16:11:00,SystemResetWarning,0826.0,4.99,000.00,023.8,023.1,000.0,032.0,025.2,6.9,0000.0,0001.12,0002.34,0000.95
2023-12-19 16:12:00,SystemResetWarning,0826.0,5.00,000.00,023.8,023.1,000.0,032.0,025.2,6.9,0000.0,0001.12,0002.26,0000.95
2023-12-19 16:13:00,SystemResetWarning,0825.9,5.01,000.00,023.8,023.1,000.0,032.0,025.2,7.1,0000.0,0001.12,0001.60,0000.95
2023-12-19 16:14:00,SystemResetWarning,0825.9,5.00,000.00,023.8,023.1,000.0,032.0,025.2,7.1,0000.0,0001.10,0001.52,0000.94
2023-12-19 16:15:00,SystemResetWarning,0826.0,4.99,000.00,023.8,023.1,000.0,032.0,025.2,7.0,0000.0,0001.09,0001.55,0000.94
2023-12-19 16:16:00,SystemResetWarning,0826.0,5.00,000.00,023.8,023.2,000.0,032.0,025.2,6.9,0000.0,0001.10,0001.66,0000.95
2023-12-19 16:17:00,SystemResetWarning,0826.0,5.02,000.00,023.9,023.2,000.0,032.1,025.3,7.0,0000.0,0001.09,0001.65,0000.94
2023-12-19 16:18:00,SystemResetWarning,0826.0,5.00,000.00,023.9,023.2,000.0,032.1,025.3,7.0,0000.0,0001.09,0001.67,0000.95
2023-12-19 16:19:00,SystemResetWarning,0826.1,4.98,000.00,023.9,023.2,000.0,032.1,025.3,6.9,0000.0,0001.11,0001.64,0000.95
2023-12-19 16:20:00,SystemResetWarning,0826.0,5.00,000.00,023.9,023.2,000.0,032.1,025.3,6.9,0000.0,0001.11,0001.66,0000.95
2023-12-19 16:21:00,SystemResetWarning,0826.0,5.01,000.00,023.9,023.2,000.0,032.1,025.3,7.2,0000.0,0001.15,0001.79,0000.97
2023-12-19 16:22:00,SystemResetWarning,0826.1,5.01,000.00,023.9,023.2,000.0,032.1,025.3,7.4,0000.0,0001.18,0001.88,0000.98
2023-12-19 16:23:00,SystemResetWarning,0826.1,5.00,000.00,023.9,023.2,000.0,032.1,025.3,7.0,0000.0,0001.22,0001.95,0001.00
2023-12-19 16:24:00,SystemResetWarning,0826.1,4.99,000.00,023.9,023.3,000.0,032.1,025.3,7.1,0000.0,0001.24,0001.97,0001.00
2023-12-19 16:25:00,SystemResetWarning,0826.1,4.99,000.00,023.9,023.3,000.0,032.1,025.4,7.5,0000.0,0001.24,0001.96,0001.02
2023-12-19 16:26:00,SystemResetWarning,0826.1,4.99,000.00,024.0,023.3,000.0,032.1,025.4,7.7,0000.0,0001.27,0001.93,0001.03
2023-12-19 16:27:00,SystemResetWarning,0826.2,5.00,000.00,024.0,023.3,000.0,032.1,025.4,7.5,0000.0,0001.31,0001.81,0001.04
2023-12-19 16:28:00,SystemResetWarning,0826.2,5.01,000.00,024.0,023.3,000.0,032.1,025.4,7.6,0000.0,0001.34,0001.92,0001.06
2023-12-19 16:29:00,SystemResetWarning,0826.2,5.00,000.00,024.0,023.3,000.0,032.2,025.4,7.5,0000.0,0001.34,0002.73,0001.05
2023-12-19 16:30:00,SystemResetWarning,0826.2,5.00,000.00,024.0,023.3,000.0,032.2,025.4,7.3,0000.0,0001.32,0003.35,0001.05
2023-12-19 16:31:00,SystemResetWarning,0826.2,4.99,000.00,024.0,023.3,000.0,032.2,025.4,7.4,0000.0,0001.30,0003.35,0001.03
2023-12-19 16:32:00,SystemResetWarning,0826.2,5.00,000.00,024.0,023.3,000.0,032.2,025.4,7.3,0000.0,0001.25,0003.22,0001.01
2023-12-19 16:33:00,SystemResetWarning,0826.2,4.99,000.00,024.0,023.3,000.0,032.2,025.5,7.5,0000.0,0001.24,0003.18,0001.01
2023-12-19 16:34:00,SystemResetWarning,0826.2,5.01,000.00,024.0,023.4,000.0,032.2,025.5,7.5,0000.0,0001.23,0003.26,0001.01
2023-12-19 16:35:00,SystemResetWarning,0826.2,5.01,000.00,024.1,023.4,000.0,032.2,025.5,7.5,0000.0,0001.20,0004.03,0001.00
2023-12-19 16:36:00,SystemResetWarning,0826.2,4.98,000.00,024.1,023.4,000.0,032.2,025.5,7.7,0000.0,0001.19,0004.43,0001.00
2023-12-19 16:37:00,SystemResetWarning,0826.2,4.99,000.00,024.1,023.4,000.0,032.2,025.5,7.2,0000.0,0001.19,0004.44,0001.00
2023-12-19 16:38:00,SystemResetWarning,0826.2,5.01,000.00,024.1,023.4,000.0,032.3,025.5,7.0,0000.0,0001.19,0004.45,0001.01
2023-12-19 16:39:00,SystemResetWarning,0826.2,5.01,000.00,024.1,023.4,000.0,032.3,025.5,7.0,0000.0,0001.20,0004.44,0001.00
2023-12-19 16:40:00,SystemResetWarning,0826.2,4.98,000.00,024.1,023.4,000.0,032.3,025.5,7.1,0000.0,0001.19,0003.67,0001.01
2023-12-19 16:41:00,SystemResetWarning,0826.2,5.01,000.00,024.1,023.4,000.0,032.3,025.5,7.3,0000.0,0001.18,0003.45,0001.00
2023-12-19 16:42:00,SystemResetWarning,0826.2,5.00,000.00,024.1,023.5,000.0,032.3,025.5,7.2,0000.0,0001.20,0004.30,0001.00
2023-12-19 16:43:00,SystemResetWarning,0826.2,5.00,000.00,024.2,023.5,000.0,032.3,025.5,7.2,0000.0,0001.24,0004.48,0001.01
2023-12-19 16:44:00,SystemResetWarning,0826.2,4.99,000.00,024.2,023.5,000.0,032.3,025.5,7.1,0000.0,0001.25,0004.56,0001.01
2023-12-19 16:45:00,SystemResetWarning,0826.2,4.99,000.00,024.2,023.5,000.0,032.3,025.6,7.1,0000.0,0001.23,0004.44,0001.00
2023-12-19 16:46:00,SystemResetWarning,0826.2,5.01,000.00,024.2,023.5,000.0,032.3,025.6,7.2,0000.0,0001.26,0003.67,0001.00
2023-12-19 16:47:00,SystemResetWarning,0826.1,5.01,000.00,024.2,023.5,000.0,032.4,025.6,7.5,0000.0,0001.26,0003.30,0000.99
2023-12-19 16:48:00,SystemResetWarning,0826.2,4.99,000.00,024.2,023.5,000.0,032.4,025.6,7.3,0000.0,0001.25,0003.29,0001.00
2023-12-19 16:49:00,SystemResetWarning,0826.2,4.98,000.00,024.2,023.5,000.0,032.4,025.6,7.4,0000.0,0001.21,0003.23,0000.98
2023-12-19 16:50:00,SystemResetWarning,0826.2,5.01,000.00,024.2,023.6,000.0,032.4,025.6,7.1,0000.0,0001.19,0003.18,0000.97
2023-12-19 16:51:00,SystemResetWarning,0826.2,5.01,000.00,024.2,023.6,000.0,032.4,025.6,7.3,0000.0,0001.21,0003.21,0000.97
2023-12-19 16:52:00,SystemResetWarning,0826.2,5.00,000.00,024.3,023.6,000.0,032.4,025.6,7.3,0000.0,0001.21,0002.73,0000.99
2023-12-19 16:53:00,SystemResetWarning,0826.2,5.01,000.00,024.3,023.6,000.0,032.4,025.7,7.4,0000.0,0001.19,0001.79,0000.99
2023-12-19 16:54:00,SystemResetWarning,0826.2,5.00,000.00,024.3,023.6,000.0,032.4,025.7,7.3,0000.0,0001.17,0001.73,0000.98
2023-12-19 16:55:00,SystemResetWarning,0826.2,5.00,000.00,024.3,023.6,000.0,032.4,025.7,7.0,0000.0,0001.15,0001.67,0000.96
2023-12-19 16:56:00,SystemResetWarning,0826.2,5.00,000.00,024.3,023.6,000.0,032.5,025.7,7.2,0000.0,0001.17,0002.54,0000.96
2023-12-19 16:57:00,SystemResetWarning,0826.2,4.99,000.00,024.3,023.6,000.0,032.5,025.7,7.3,0000.0,0001.16,0003.30,0000.97
2023-12-19 16:58:00,SystemResetWarning,0826.2,5.00,000.00,024.3,023.6,000.0,032.5,025.8,7.3,0000.0,0001.15,0003.26,0000.97
2023-12-19 16:59:00,SystemResetWarning,0826.2,5.01,000.00,024.3,023.7,000.0,032.5,025.7,7.5,0000.0,0001.14,0003.24,0000.96
